World > North America > United States > Mississippi > Becker  

Becker, MS Hourly Weather Updates

Feedback E-mail the Weather

Quick Clicks

Becker, MS Weather Maps

°F °C°F °C
Becker Weather Map
UTC Time: 7/22/2024, 23:54
Your Time:

Becker, MS Regional Weather

Expires:202407230000;;126241
ASUS44 KJAN 222310
RWRMS 

MISSISSIPPI HOURLY WEATHER ROUNDUP
NATIONAL WEATHER SERVICE JACKSON MS
600 PM CDT MON JUL 22 2024

NOTE: "FAIR: INDICATES FEW OR NO CLOUDS BELOW 12,000 FEET WITH NO
SIGNIFICANT WEATHER AND/OR OBSTRUCTIONS TO VISIBILITY.


MSZ003>006-009-014>017-022>024-029>033-037>039-230000-
NORTHEAST MISSISSIPPI
  
CITY           SKY/WX    TMP DP  RH WIND       PRES   REMARKS
ABERDEEN       CLOUDY    84  77  79 S6        29.97S HX  94           
COLUMBUS AFB   CLOUDY    87  72  61 SE7       29.93R HX  93           
CORINTH        DRIZZLE   81  75  83 NW5       29.96R                  
GOLDN TRIANGLE SUNNY     84  72  65 S7        29.98R                  
IUKA           PTSUNNY   85  71  64 CALM      29.97R HX  90           
LOUISVILLE     PTSUNNY   82  73  74 W6        30.02R                  
STARKVILLE     CLOUDY    82  73  74 SW3       29.96R                  
TUPELO         PTSUNNY   90  69  50 SW6       29.95R HX  94           
$$


SKY/WX - Weather  TMP - Temperature  DP - Dew Point  RH - Humidity
WIND - Wind Direction/Speed PRES - Barometric Pressure VSB - Visibility
WCI - Wind Chill Index E13G22 Wind - East Wind 13 mph/Gusts of 22 mph

Trending Headlines

Trending Entertainment Headlines

Becker Radar Loop

Use the map search tool if you want to place a location marker on the radar map...

Becker Quick Facts

National Two Day Weather Forecast


E-mail the Becker Weather Forecast

Voice your opinion or tell us about page issues...